Torna al catalogo

STARLINK-34274

AttivoComunicazioniVLEO
NORAD 64348·PAYLOAD·🇺🇸 United States

Lanciato Jun 13, 2025 da Vandenberg Space Force Base

Loading…

Prossimi Passaggi (prossime 24 ore)

TLE

AggiornatoSource: CelesTrak SupGP

Epoca: Sep 15, 2026, 03:07 UTC

1 64348C 25126E   26258.13034722 -.00025253  00000+0 -87834-3 0  2585
2 64348  70.0003 275.3424 0003200 269.4181 145.0369 15.29596784    15

Traccia STARLINK-34274 in tempo reale con AllMySat

Download on the App Store